Location: Maiden
(35.5760°N, 81.2120°W)
Time: 21:40:27
(UTC-04:00)

Cosmos 2058 Rocket - Pass Details

Date: 14 June 2018
Orbit: 611 x 639 km, 82.5° (Epoch: 17 June)

Event Time Altitude Azimuth Distance (km) Brightness Sun altitude
Rises 21:41:29 0° 351° (N) 2,922 7.3 -10.8°
Reaches altitude 10° 21:43:44 10° 350° (N) 2,006 6.5 -11.2°
Maximum altitude 21:48:10 77° 266° (W) 642 3.2 -11.9°
Drops below altitude 10° 21:52:32 10° 179° (S) 1,975 5.3 -12.6°
Enters shadow 21:53:01 - 179° (S) 2,167 5.5 -12.6°
